User: anonymous   Login
Location: Unspecified
(0.0000°N, 0.0000°E)
Time: 10:52:23
(UTC+00:00)
Language:

WGS F2 (USA 204) - Orbit

View from above orbital plane
View from above orbital plane
View from above satellite
View from above satellite

Ground track
Ground track

The orbit data is extracted from the following two-line orbital elements,

1 34713U 09017A   17192.82886027 0.00000000  00000-0  00000-0 0    09
2 34713   0.0300 288.4740 0001458  74.5351 285.5022  1.00270000    03
Epoch (UTC): 11 July 2017 19:53:33
Eccentricity: 0.0001458
inclination: 0.0300°
perigee height: 35780 km
apogee height: 35793 km
right ascension of ascending node: 288.4740°
argument of perigee: 74.5351°
revolutions per day: 1.00270000
mean anomaly at epoch: 285.5022°
orbit number at epoch: 0

The dashed part of the orbit path shows where the satellite is in the earth's shadow,  

DLR